sat.trackr.live / text

‹ back to catalog

ZHONGXING-1E

NORAD 53813 · 2022-112A

PAYLOAD ACTIVE UNKNOWN

§ Identity

Operator
Country
PRC
Launch date
2022-09-13
Launch site
WSC
Launch vehicle
Mass (kg)
RCS (m²)

Purposes: comms

External: N2YO · Heavens-Above · Gunter

§ Orbital elements

Epoch: 2026-05-25T04:07:52.533120Z

Period
1,436.12 min
Inclination
0.0117°
Eccentricity
0.0000854
Mean motion
1.00270392 rev/d
Perigee alt
35,783.4 km
Apogee alt
35,790.6 km
Semi-major
42,165.1 km
B*
0.0000e+0
RAAN
292.1882°
Arg perigee
58.2275°
Mean anomaly
35.7212°
Rev number
1,361

§ Raw data

ZHONGXING-1E1 53813U 22112A   26145.17213580  .00000000  00000+0  00000+0 0  99912 53813   0.0117 292.1882 0000854  58.2275  35.7212  1.00270392 13614

JSON: /api/v1/satellites/53813 · /tle

For live sub-satellite position, see the globe view (requires WebGL).

§ Visibility from observer

Set your observer location to see the next 7 days of passes ≥ 10°. The values pass through the URL so the page stays shareable.

No JS? Fill the form by hand. The geolocation button needs JavaScript.